UMKA 1 (RS40S)

Last updated on Wed Jul 02 2025 00:03:06 GMT+0000 (Coordinated Universal Time)

1 57172U 23091G 25182.59427219 .00003738 00000+0 20038-3 0 9990 2 57172 97.5565 237.8633 0012770 256.1632 103.8180 15.15547680110819
UTC large
Height (km)
Speed (km/s)
/
Latitude / Longitude
Inclination (degrees)
Orbital Period (minutes)
Azimuth
Elevation
Range (km)
Doppler Factor

Next 0 passes for location: London (51.5072 / 0.1276)

Sorry there are no passes over London.